| time (UTC) | temp F | wind direction | speed MPH | gust MPH | rain 1hr in | rain 24hr in | rain mn in | humidity % | barometer mb |
| 20260506051028 | 33 | 298 | 0.0 | 2.0 | 0.00 | 0.00 | 0.00 | 64 | 1013.8 |
| 20260506050527 | 34 | 0 | 0.0 | 3.0 | 0.00 | 0.00 | 0.00 | 64 | 1013.6 |
| 20260506045029 | 34 | 301 | 0.0 | 3.0 | 0.00 | 0.00 | 0.00 | 62 | 1013.7 |
| 20260506044547 | 34 | 0 | 0.0 | 3.0 | 0.00 | 0.00 | 0.00 | 62 | 1013.5 |
| 20260506044030 | 34 | 316 | 0.0 | 2.0 | 0.00 | 0.00 | 0.00 | 62 | 1013.6 |
| 20260506043528 | 34 | 325 | 0.0 | 3.0 | 0.00 | 0.00 | 0.00 | 62 | 1013.6 |
| 20260506043036 | 34 | 321 | 1.0 | 3.0 | 0.00 | 0.00 | 0.00 | 61 | 1013.5 |
| 20260506042528 | 34 | 311 | 0.0 | 3.0 | 0.00 | 0.00 | 0.00 | 61 | 1013.4 |
| 20260506042029 | 35 | 0 | 0.0 | 3.0 | 0.00 | 0.00 | 0.00 | 61 | 1013.5 |
| 20260506041543 | 35 | 0 | 1.0 | 3.0 | 0.00 | 0.00 | 0.00 | 60 | 1013.5 |
| 20260506041028 | 35 | 342 | 1.0 | 3.0 | 0.00 | 0.00 | 0.00 | 60 | 1013.5 |
| 20260506040528 | 35 | 0 | 0.0 | 4.0 | 0.00 | 0.00 | 0.00 | 60 | 1013.4 |
| 20260506040041 | 35 | 297 | 1.0 | 4.0 | 0.00 | 0.00 | 0.00 | 60 | 1013.4 |
| 20260506035528 | 35 | 332 | 1.0 | 3.0 | 0.00 | 0.00 | 0.00 | 59 | 1013.4 |
| 20260506035027 | 36 | 321 | 1.0 | 3.0 | 0.00 | 0.00 | 0.00 | 59 | 1013.4 |
| 20260506034552 | 36 | 263 | 0.0 | 3.0 | 0.00 | 0.00 | 0.00 | 59 | 1013.4 |
| 20260506034028 | 36 | 311 | 1.0 | 4.0 | 0.00 | 0.00 | 0.00 | 59 | 1013.4 |
| 20260506033527 | 36 | 345 | 1.0 | 4.0 | 0.00 | 0.00 | 0.00 | 58 | 1013.3 |
| 20260506033038 | 36 | 347 | 1.0 | 4.0 | 0.00 | 0.00 | 0.00 | 58 | 1013.3 |
| 20260506032527 | 37 | 315 | 1.0 | 4.0 | 0.00 | 0.00 | 0.00 | 57 | 1013.2 |
| 20260506032029 | 37 | 345 | 1.0 | 9.0 | 0.00 | 0.00 | 0.00 | 56 | 1013.2 |
| 20260506031550 | 37 | 313 | 1.0 | 9.0 | 0.00 | 0.00 | 0.00 | 55 | 1013.2 |
| 20260506031029 | 37 | 313 | 4.0 | 9.0 | 0.00 | 0.00 | 0.00 | 55 | 1013.1 |
| 20260506030530 | 37 | 11 | 2.0 | 6.0 | 0.00 | 0.00 | 0.00 | 54 | 1013.2 |
| 20260506030041 | 37 | 335 | 2.0 | 9.0 | 0.00 | 0.00 | 0.00 | 54 | 1013.2 |
| 20260506025527 | 38 | 267 | 3.0 | 9.0 | 0.00 | 0.00 | 0.00 | 54 | 1013.2 |
| 20260506025027 | 38 | 28 | 3.0 | 7.0 | 0.00 | 0.00 | 0.00 | 54 | 1013.1 |
| 20260506024549 | 38 | 342 | 2.0 | 9.0 | 0.00 | 0.00 | 0.00 | 54 | 1013.1 |
| 20260506024028 | 38 | 333 | 3.0 | 9.0 | 0.00 | 0.00 | 0.00 | 53 | 1013.1 |
| 20260506023527 | 38 | 319 | 3.0 | 7.0 | 0.00 | 0.00 | 0.00 | 53 | 1013.0 |
| 20260506023038 | 38 | 305 | 2.0 | 7.0 | 0.00 | 0.00 | 0.00 | 53 | 1012.9 |
| 20260506022528 | 38 | 327 | 2.0 | 8.0 | 0.00 | 0.00 | 0.00 | 53 | 1012.8 |
| 20260506022027 | 39 | 329 | 2.0 | 9.0 | 0.00 | 0.00 | 0.00 | 53 | 1012.7 |
| 20260506021538 | 39 | 323 | 3.0 | 9.0 | 0.00 | 0.00 | 0.00 | 52 | 1012.8 |
| 20260506021027 | 39 | 312 | 3.0 | 9.0 | 0.00 | 0.00 | 0.00 | 52 | 1012.6 |
| 20260506020527 | 39 | 317 | 2.0 | 9.0 | 0.00 | 0.00 | 0.00 | 52 | 1012.5 |
| 20260506020037 | 39 | 347 | 3.0 | 10.0 | 0.00 | 0.00 | 0.00 | 51 | 1012.4 |
| 20260506015528 | 40 | 325 | 4.0 | 13.0 | 0.00 | 0.00 | 0.00 | 51 | 1012.4 |
| 20260506015028 | 40 | 327 | 4.0 | 13.0 | 0.00 | 0.00 | 0.00 | 51 | 1012.4 |
| 20260506014542 | 40 | 338 | 3.0 | 12.0 | 0.00 | 0.00 | 0.00 | 51 | 1012.4 |
| 20260506014027 | 40 | 350 | 3.0 | 12.0 | 0.00 | 0.00 | 0.00 | 51 | 1012.3 |
| 20260506013528 | 40 | 271 | 4.0 | 12.0 | 0.00 | 0.00 | 0.00 | 51 | 1012.3 |
| 20260506013042 | 40 | 318 | 4.0 | 9.0 | 0.00 | 0.00 | 0.00 | 50 | 1012.2 |
| 20260506012527 | 41 | 302 | 4.0 | 11.0 | 0.00 | 0.00 | 0.00 | 50 | 1012.1 |
| 20260506012030 | 41 | 288 | 3.0 | 11.0 | 0.00 | 0.00 | 0.00 | 49 | 1012.1 |
| 20260506011543 | 41 | 32 | 2.0 | 10.0 | 0.00 | 0.00 | 0.00 | 49 | 1012.1 |
| 20260506011028 | 41 | 15 | 4.0 | 12.0 | 0.00 | 0.00 | 0.00 | 49 | 1011.9 |
| 20260506010528 | 41 | 303 | 5.0 | 12.0 | 0.00 | 0.00 | 0.00 | 48 | 1012.0 |
| 20260506010051 | 42 | 278 | 6.0 | 14.0 | 0.00 | 0.00 | 0.00 | 47 | 1011.9 |
| 20260506005528 | 42 | 338 | 4.0 | 14.0 | 0.00 | 0.00 | 0.00 | 48 | 1011.9 |
| 20260506005027 | 42 | 313 | 4.0 | 14.0 | 0.00 | 0.00 | 0.00 | 47 | 1011.8 |
| 20260506004541 | 42 | 327 | 4.0 | 14.0 | 0.00 | 0.00 | 0.00 | 48 | 1011.8 |
| 20260506004027 | 42 | 293 | 5.0 | 17.0 | 0.00 | 0.00 | 0.00 | 47 | 1011.7 |
| 20260506003528 | 43 | 294 | 7.0 | 17.0 | 0.00 | 0.00 | 0.00 | 47 | 1011.8 |
| 20260506003042 | 43 | 325 | 5.0 | 16.0 | 0.00 | 0.00 | 0.00 | 47 | 1011.7 |
| 20260506002528 | 43 | 300 | 7.0 | 14.0 | 0.00 | 0.00 | 0.00 | 47 | 1011.6 |
| 20260506002027 | 43 | 313 | 7.0 | 14.0 | 0.00 | 0.00 | 0.00 | 47 | 1011.6 |
| 20260506001541 | 43 | 295 | 4.0 | 11.0 | 0.00 | 0.00 | 0.00 | 48 | 1011.5 |
| 20260506001028 | 43 | 360 | 4.0 | 17.0 | 0.00 | 0.00 | 0.00 | 48 | 1011.5 |
| 20260506000528 | 43 | 5 | 7.0 | 17.0 | 0.00 | 0.00 | 0.00 | 47 | 1011.5 |
| 20260506000042 | 44 | 322 | 6.0 | 22.0 | 0.00 | 0.00 | 0.00 | 47 | 1011.6 |
| 20260505235525 | 44 | 278 | 9.0 | 22.0 | 0.00 | 0.00 | 0.00 | 46 | 1011.4 |
| 20260505235027 | 44 | 261 | 9.0 | 15.0 | 0.00 | 0.00 | 0.00 | 46 | 1011.4 |
| 20260505234540 | 44 | 28 | 6.0 | 16.0 | 0.00 | 0.00 | 0.00 | 46 | 1011.2 |
| 20260505234027 | 44 | 271 | 4.0 | 16.0 | 0.00 | 0.00 | 0.00 | 46 | 1011.2 |
| 20260505233528 | 45 | 298 | 8.0 | 16.0 | 0.00 | 0.00 | 0.00 | 45 | 1011.2 |
| 20260505233047 | 45 | 272 | 7.0 | 14.0 | 0.00 | 0.00 | 0.00 | 44 | 1011.2 |
| 20260505232528 | 46 | 288 | 5.0 | 13.0 | 0.00 | 0.00 | 0.00 | 44 | 1011.1 |
| 20260505232028 | 46 | 302 | 5.0 | 13.0 | 0.00 | 0.00 | 0.00 | 43 | 1011.0 |
| 20260505231541 | 46 | 332 | 6.0 | 16.0 | 0.00 | 0.00 | 0.00 | 43 | 1011.0 |
| 20260505231028 | 46 | 313 | 7.0 | 16.0 | 0.00 | 0.00 | 0.00 | 43 | 1011.0 |
| 20260505230527 | 46 | 345 | 6.0 | 17.0 | 0.00 | 0.00 | 0.00 | 43 | 1010.9 |
| 20260505230049 | 46 | 275 | 5.0 | 17.0 | 0.00 | 0.00 | 0.00 | 43 | 1011.0 |
| 20260505225527 | 46 | 336 | 6.0 | 17.0 | 0.00 | 0.00 | 0.00 | 42 | 1011.0 |
| 20260505225028 | 46 | 360 | 4.0 | 16.0 | 0.00 | 0.00 | 0.00 | 42 | 1011.0 |
| 20260505224543 | 46 | 32 | 6.0 | 16.0 | 0.00 | 0.00 | 0.00 | 41 | 1010.9 |
| 20260505224028 | 47 | 286 | 5.0 | 17.0 | 0.00 | 0.00 | 0.00 | 41 | 1010.9 |
| 20260505223527 | 47 | 322 | 7.0 | 17.0 | 0.00 | 0.00 | 0.00 | 40 | 1010.9 |
| 20260505223041 | 47 | 282 | 9.0 | 17.0 | 0.00 | 0.00 | 0.00 | 40 | 1010.8 |
| 20260505222529 | 47 | 297 | 6.0 | 13.0 | 0.00 | 0.00 | 0.00 | 40 | 1010.7 |
| 20260505222028 | 47 | 273 | 5.0 | 20.0 | 0.00 | 0.00 | 0.00 | 42 | 1010.7 |
| 20260505221540 | 47 | 347 | 5.0 | 20.0 | 0.00 | 0.00 | 0.00 | 41 | 1010.8 |
| 20260505221026 | 47 | 30 | 6.0 | 15.0 | 0.00 | 0.00 | 0.00 | 40 | 1010.7 |
| 20260505220527 | 47 | 260 | 8.0 | 15.0 | 0.00 | 0.00 | 0.00 | 41 | 1010.7 |
| 20260505220040 | 47 | 263 | 6.0 | 14.0 | 0.00 | 0.00 | 0.00 | 42 | 1010.6 |
| 20260505215527 | 47 | 290 | 7.0 | 19.0 | 0.00 | 0.00 | 0.00 | 42 | 1010.6 |
| 20260505215027 | 47 | 360 | 7.0 | 19.0 | 0.00 | 0.00 | 0.00 | 42 | 1010.6 |
| 20260505214538 | 47 | 311 | 9.0 | 19.0 | 0.00 | 0.00 | 0.00 | 42 | 1010.7 |
| 20260505214027 | 47 | 336 | 5.0 | 15.0 | 0.00 | 0.00 | 0.00 | 42 | 1010.7 |
| 20260505213527 | 47 | 302 | 5.0 | 15.0 | 0.00 | 0.00 | 0.00 | 42 | 1010.8 |
| 20260505213037 | 48 | 274 | 8.0 | 16.0 | 0.00 | 0.00 | 0.00 | 41 | 1010.9 |
| 20260505212530 | 47 | 284 | 6.0 | 21.0 | 0.00 | 0.00 | 0.00 | 42 | 1010.8 |
| 20260505212028 | 47 | 308 | 11.0 | 21.0 | 0.00 | 0.00 | 0.00 | 42 | 1010.8 |
| 20260505211546 | 48 | 287 | 7.0 | 18.0 | 0.00 | 0.00 | 0.00 | 40 | 1010.8 |
| 20260505211027 | 48 | 310 | 8.0 | 14.0 | 0.00 | 0.00 | 0.00 | 41 | 1010.8 |
| 20260505210528 | 48 | 293 | 5.0 | 18.0 | 0.00 | 0.00 | 0.00 | 42 | 1010.8 |
| 20260505210043 | 48 | 300 | 6.0 | 18.0 | 0.00 | 0.00 | 0.00 | 42 | 1010.8 |
| 20260505205528 | 48 | 285 | 5.0 | 15.0 | 0.00 | 0.00 | 0.00 | 41 | 1010.7 |
| 20260505205028 | 47 | 317 | 7.0 | 15.0 | 0.00 | 0.00 | 0.00 | 42 | 1010.7 |
| 20260505204540 | 47 | 321 | 7.0 | 17.0 | 0.00 | 0.00 | 0.00 | 42 | 1010.8 |
| 20260505204027 | 47 | 327 | 8.0 | 19.0 | 0.00 | 0.00 | 0.00 | 42 | 1010.7 |
| 20260505203528 | 47 | 275 | 7.0 | 19.0 | 0.00 | 0.00 | 0.00 | 42 | 1010.7 |
| 20260505203040 | 47 | 284 | 7.0 | 18.0 | 0.00 | 0.00 | 0.00 | 42 | 1010.5 |
| 20260505202527 | 47 | 268 | 8.0 | 16.0 | 0.00 | 0.00 | 0.00 | 40 | 1010.7 |
| 20260505202026 | 48 | 289 | 7.0 | 14.0 | 0.00 | 0.00 | 0.00 | 41 | 1010.6 |
| 20260505201551 | 48 | 308 | 8.0 | 14.0 | 0.00 | 0.00 | 0.00 | 40 | 1010.7 |
| 20260505201029 | 48 | 284 | 4.0 | 14.0 | 0.00 | 0.00 | 0.00 | 41 | 1010.7 |
| 20260505200529 | 47 | 349 | 5.0 | 15.0 | 0.00 | 0.00 | 0.00 | 42 | 1010.6 |
| 20260505200043 | 47 | 323 | 6.0 | 16.0 | 0.00 | 0.00 | 0.00 | 42 | 1010.7 |
| 20260505195528 | 47 | 360 | 7.0 | 16.0 | 0.00 | 0.00 | 0.00 | 41 | 1010.6 |
| 20260505195027 | 46 | 326 | 6.0 | 14.0 | 0.00 | 0.00 | 0.00 | 42 | 1010.7 |
| 20260505194542 | 46 | 209 | 5.0 | 16.0 | 0.00 | 0.00 | 0.00 | 42 | 1010.7 |
| 20260505194029 | 46 | 313 | 7.0 | 16.0 | 0.00 | 0.00 | 0.00 | 43 | 1010.7 |
| 20260505193526 | 46 | 355 | 5.0 | 14.0 | 0.00 | 0.00 | 0.00 | 42 | 1010.8 |
| 20260505193041 | 46 | 294 | 8.0 | 14.0 | 0.00 | 0.00 | 0.00 | 41 | 1010.7 |
| 20260505192532 | 46 | 262 | 7.0 | 12.0 | 0.00 | 0.00 | 0.00 | 42 | 1010.7 |
| 20260505192030 | 46 | 292 | 5.0 | 11.0 | 0.00 | 0.00 | 0.00 | 41 | 1010.7 |
| 20260505191538 | 46 | 355 | 3.0 | 12.0 | 0.00 | 0.00 | 0.00 | 42 | 1010.7 |
| 20260505191027 | 46 | 305 | 6.0 | 12.0 | 0.00 | 0.00 | 0.00 | 42 | 1010.7 |
| 20260505190529 | 46 | 310 | 5.0 | 11.0 | 0.00 | 0.00 | 0.00 | 42 | 1010.6 |
| 20260505190039 | 46 | 332 | 4.0 | 11.0 | 0.00 | 0.00 | 0.00 | 42 | 1010.7 |
| 20260505185530 | 46 | 294 | 5.0 | 11.0 | 0.00 | 0.00 | 0.00 | 42 | 1010.7 |
| 20260505185029 | 46 | 323 | 5.0 | 11.0 | 0.00 | 0.00 | 0.00 | 43 | 1010.7 |
| 20260505184545 | 46 | 300 | 2.0 | 13.0 | 0.00 | 0.00 | 0.00 | 43 | 1010.6 |
| 20260505184026 | 46 | 355 | 5.0 | 13.0 | 0.00 | 0.00 | 0.00 | 43 | 1010.7 |
| 20260505183528 | 45 | 336 | 4.0 | 11.0 | 0.00 | 0.00 | 0.00 | 43 | 1010.7 |
| 20260505183107 | 45 | 332 | 5.0 | 13.0 | 0.00 | 0.00 | 0.00 | 43 | 1010.7 |
| 20260505182526 | 45 | 292 | 5.0 | 15.0 | 0.00 | 0.00 | 0.00 | 44 | 1010.7 |
| 20260505182029 | 45 | 321 | 7.0 | 15.0 | 0.00 | 0.00 | 0.00 | 43 | 1010.6 |
| 20260505181543 | 45 | 355 | 6.0 | 12.0 | 0.00 | 0.00 | 0.00 | 44 | 1010.7 |
| 20260505181030 | 45 | 286 | 3.0 | 11.0 | 0.00 | 0.00 | 0.00 | 44 | 1010.6 |
| 20260505180527 | 45 | 309 | 3.0 | 12.0 | 0.00 | 0.00 | 0.00 | 44 | 1010.6 |
| 20260505180042 | 45 | 331 | 4.0 | 15.0 | 0.00 | 0.00 | 0.00 | 44 | 1010.6 |
| 20260505175527 | 45 | 310 | 6.0 | 15.0 | 0.00 | 0.00 | 0.00 | 44 | 1010.5 |
| 20260505175029 | 45 | 296 | 4.0 | 13.0 | 0.00 | 0.00 | 0.00 | 44 | 1010.5 |
| 20260505174544 | 45 | 315 | 4.0 | 12.0 | 0.00 | 0.00 | 0.00 | 44 | 1010.6 |
| 20260505174029 | 45 | 298 | 6.0 | 12.0 | 0.00 | 0.00 | 0.00 | 44 | 1010.6 |
| 20260505173529 | 45 | 286 | 5.0 | 12.0 | 0.00 | 0.00 | 0.00 | 43 | 1010.6 |
| 20260505173050 | 45 | 34 | 5.0 | 12.0 | 0.00 | 0.00 | 0.00 | 43 | 1010.4 |
| 20260505172528 | 45 | 39 | 5.0 | 12.0 | 0.00 | 0.00 | 0.00 | 44 | 1010.4 |
| 20260505172031 | 46 | 304 | 3.0 | 15.0 | 0.00 | 0.00 | 0.00 | 43 | 1010.5 |
| 20260505171545 | 45 | 321 | 6.0 | 15.0 | 0.00 | 0.00 | 0.00 | 43 | 1010.5 |
| 20260505171029 | 45 | 320 | 3.0 | 14.0 | 0.00 | 0.00 | 0.00 | 43 | 1010.5 |
| 20260505170527 | 45 | 306 | 8.0 | 17.0 | 0.00 | 0.00 | 0.00 | 42 | 1010.5 |
| 20260505170040 | 45 | 355 | 5.0 | 17.0 | 0.00 | 0.00 | 0.00 | 43 | 1010.5 |
| 20260505165530 | 44 | 277 | 9.0 | 17.0 | 0.00 | 0.00 | 0.00 | 44 | 1010.5 |
| 20260505165029 | 44 | 293 | 10.0 | 16.0 | 0.00 | 0.00 | 0.00 | 43 | 1010.6 |
| 20260505164542 | 44 | 316 | 6.0 | 17.0 | 0.00 | 0.00 | 0.00 | 44 | 1010.5 |
| 20260505164030 | 44 | 283 | 8.0 | 17.0 | 0.00 | 0.00 | 0.00 | 43 | 1010.5 |
| 20260505163529 | 45 | 306 | 10.0 | 17.0 | 0.00 | 0.00 | 0.00 | 42 | 1010.5 |
| 20260505163044 | 45 | 331 | 9.0 | 17.0 | 0.00 | 0.00 | 0.00 | 42 | 1010.4 |
| 20260505162528 | 45 | 271 | 7.0 | 17.0 | 0.00 | 0.00 | 0.00 | 43 | 1010.5 |
| 20260505162026 | 46 | 311 | 5.0 | 13.0 | 0.00 | 0.00 | 0.00 | 43 | 1010.4 |
| 20260505161543 | 44 | 340 | 6.0 | 16.0 | 0.00 | 0.00 | 0.00 | 45 | 1010.4 |
| 20260505161027 | 44 | 345 | 5.0 | 16.0 | 0.00 | 0.00 | 0.00 | 45 | 1010.5 |
| 20260505160530 | 44 | 343 | 4.0 | 18.0 | 0.00 | 0.00 | 0.00 | 46 | 1010.4 |
| 20260505153042 | 44 | 332 | 7.0 | 16.0 | 0.00 | 0.00 | 0.00 | 45 | 1010.3 |
| 20260505152528 | 43 | 284 | 5.0 | 16.0 | 0.00 | 0.00 | 0.00 | 45 | 1010.4 |
| 20260505152026 | 44 | 345 | 5.0 | 13.0 | 0.00 | 0.00 | 0.00 | 47 | 1010.3 |
| 20260505151541 | 44 | 281 | 7.0 | 13.0 | 0.00 | 0.00 | 0.00 | 46 | 1010.3 |
| 20260505151026 | 44 | 307 | 6.0 | 16.0 | 0.00 | 0.00 | 0.00 | 47 | 1010.3 |
| 20260505150526 | 43 | 337 | 6.0 | 16.0 | 0.00 | 0.00 | 0.00 | 47 | 1010.4 |
| 20260505140526 | 40 | 344 | 5.0 | 12.0 | 0.00 | 0.00 | 0.00 | 50 | 1010.0 |
| 20260505125027 | 37 | 303 | 3.0 | 10.0 | 0.00 | 0.00 | 0.00 | 57 | 1009.3 |
| 20260505124542 | 36 | 269 | 3.0 | 10.0 | 0.00 | 0.00 | 0.00 | 58 | 1009.2 |
| 20260505124027 | 36 | 283 | 3.0 | 9.0 | 0.00 | 0.00 | 0.00 | 60 | 1009.2 |
| 20260505123526 | 35 | 36 | 3.0 | 9.0 | 0.00 | 0.00 | 0.00 | 60 | 1009.1 |
| 20260505123040 | 35 | 28 | 4.0 | 9.0 | 0.00 | 0.00 | 0.00 | 60 | 1009.0 |
| 20260505122529 | 35 | 323 | 2.0 | 7.0 | 0.00 | 0.00 | 0.00 | 62 | 1009.0 |
| 20260505122030 | 35 | 296 | 3.0 | 7.0 | 0.00 | 0.00 | 0.00 | 63 | 1009.0 |
| 20260505121540 | 34 | 326 | 2.0 | 7.0 | 0.00 | 0.00 | 0.00 | 64 | 1008.9 |
| 20260505121029 | 34 | 297 | 2.0 | 8.0 | 0.00 | 0.00 | 0.00 | 64 | 1008.8 |
| 20260505120529 | 34 | 325 | 3.0 | 8.0 | 0.00 | 0.00 | 0.00 | 64 | 1008.7 |
| 20260505120103 | 34 | 318 | 2.0 | 7.0 | 0.00 | 0.00 | 0.00 | 64 | 1008.6 |
| 20260505115532 | 34 | 288 | 3.0 | 7.0 | 0.00 | 0.00 | 0.00 | 65 | 1008.7 |
| 20260505115029 | 34 | 273 | 3.0 | 7.0 | 0.00 | 0.00 | 0.00 | 65 | 1008.6 |
| 20260505114540 | 34 | 332 | 2.0 | 6.0 | 0.00 | 0.00 | 0.00 | 65 | 1008.6 |
| 20260505114029 | 34 | 273 | 2.0 | 6.0 | 0.00 | 0.00 | 0.00 | 66 | 1008.6 |
| 20260505113527 | 33 | 290 | 2.0 | 5.0 | 0.00 | 0.00 | 0.00 | 66 | 1008.6 |
| 20260505113044 | 33 | 296 | 1.0 | 4.0 | 0.00 | 0.00 | 0.00 | 66 | 1008.6 |
| 20260505112528 | 33 | 318 | 1.0 | 4.0 | 0.00 | 0.00 | 0.00 | 66 | 1008.5 |
| 20260505112029 | 33 | 336 | 1.0 | 4.0 | 0.00 | 0.00 | 0.00 | 66 | 1008.4 |
| 20260505111543 | 33 | 294 | 2.0 | 6.0 | 0.00 | 0.00 | 0.00 | 66 | 1008.4 |
| 20260505111026 | 33 | 290 | 1.0 | 6.0 | 0.00 | 0.00 | 0.00 | 66 | 1008.4 |
| 20260505110525 | 33 | 293 | 1.0 | 5.0 | 0.00 | 0.00 | 0.00 | 66 | 1008.3 |
| 20260505102029 | 34 | 330 | 3.0 | 7.0 | 0.00 | 0.00 | 0.00 | 63 | 1008.2 |
| 20260505101537 | 34 | 295 | 2.0 | 7.0 | 0.00 | 0.00 | 0.00 | 63 | 1008.1 |
| 20260505101027 | 35 | 0 | 2.0 | 8.0 | 0.00 | 0.00 | 0.00 | 64 | 1008.2 |
| 20260505100529 | 35 | 296 | 3.0 | 9.0 | 0.00 | 0.00 | 0.00 | 65 | 1008.0 |
| 20260505100043 | 35 | 5 | 3.0 | 9.0 | 0.00 | 0.00 | 0.00 | 65 | 1008.1 |
| 20260505095529 | 35 | 283 | 3.0 | 9.0 | 0.00 | 0.00 | 0.00 | 65 | 1008.1 |
| 20260505095026 | 35 | 322 | 4.0 | 9.0 | 0.00 | 0.00 | 0.00 | 67 | 1008.0 |
| 20260505094542 | 35 | 313 | 4.0 | 9.0 | 0.00 | 0.00 | 0.00 | 68 | 1008.1 |
| 20260505094026 | 35 | 342 | 4.0 | 10.0 | 0.00 | 0.00 | 0.00 | 69 | 1008.1 |
| 20260505093526 | 35 | 333 | 4.0 | 10.0 | 0.00 | 0.00 | 0.00 | 70 | 1008.1 |
| 20260505093043 | 35 | 329 | 2.0 | 8.0 | 0.00 | 0.00 | 0.00 | 70 | 1008.0 |
| 20260505092527 | 35 | 321 | 1.0 | 6.0 | 0.00 | 0.00 | 0.00 | 70 | 1008.0 |
| 20260505092028 | 35 | 289 | 2.0 | 6.0 | 0.00 | 0.00 | 0.00 | 69 | 1007.9 |
| 20260505091543 | 36 | 298 | 2.0 | 8.0 | 0.00 | 0.00 | 0.00 | 69 | 1007.9 |
| 20260505091029 | 36 | 332 | 3.0 | 8.0 | 0.00 | 0.00 | 0.00 | 69 | 1007.8 |
| 20260505090527 | 36 | 333 | 4.0 | 8.0 | 0.00 | 0.00 | 0.00 | 69 | 1007.8 |
| 20260505090046 | 36 | 319 | 2.0 | 9.0 | 0.00 | 0.00 | 0.00 | 68 | 1007.6 |
| 20260505085529 | 36 | 311 | 3.0 | 9.0 | 0.00 | 0.00 | 0.00 | 68 | 1007.6 |
| 20260505085027 | 36 | 321 | 3.0 | 9.0 | 0.00 | 0.00 | 0.00 | 68 | 1007.4 |
| 20260505084540 | 36 | 317 | 4.0 | 9.0 | 0.00 | 0.00 | 0.00 | 68 | 1007.4 |
| 20260505084029 | 37 | 325 | 2.0 | 9.0 | 0.00 | 0.00 | 0.00 | 68 | 1007.4 |
| 20260505083526 | 37 | 43 | 4.0 | 10.0 | 0.00 | 0.00 | 0.00 | 68 | 1007.3 |
| 20260505083037 | 37 | 309 | 4.0 | 10.0 | 0.00 | 0.00 | 0.00 | 67 | 1007.2 |
| 20260505082528 | 37 | 360 | 4.0 | 10.0 | 0.00 | 0.00 | 0.00 | 67 | 1007.2 |
| 20260505082027 | 37 | 304 | 3.0 | 9.0 | 0.00 | 0.00 | 0.00 | 67 | 1007.1 |
| 20260505081540 | 37 | 355 | 3.0 | 9.0 | 0.00 | 0.00 | 0.00 | 67 | 1007.1 |
| 20260505081029 | 37 | 312 | 4.0 | 10.0 | 0.00 | 0.00 | 0.00 | 66 | 1007.1 |
| 20260505080528 | 37 | 311 | 3.0 | 10.0 | 0.00 | 0.00 | 0.00 | 66 | 1007.1 |
| 20260505080042 | 37 | 299 | 3.0 | 10.0 | 0.00 | 0.00 | 0.00 | 66 | 1007.1 |
| 20260505075528 | 37 | 288 | 3.0 | 10.0 | 0.00 | 0.00 | 0.00 | 65 | 1007.2 |
| 20260505075026 | 37 | 323 | 3.0 | 10.0 | 0.00 | 0.00 | 0.00 | 65 | 1007.1 |
| 20260505074541 | 37 | 284 | 2.0 | 9.0 | 0.00 | 0.00 | 0.00 | 65 | 1007.0 |
| 20260505074028 | 37 | 303 | 3.0 | 9.0 | 0.00 | 0.00 | 0.00 | 65 | 1007.1 |
| 20260505073527 | 37 | 336 | 3.0 | 11.0 | 0.00 | 0.00 | 0.00 | 65 | 1007.0 |
| 20260505073058 | 37 | 337 | 4.0 | 11.0 | 0.00 | 0.00 | 0.00 | 65 | 1007.0 |
| 20260505072527 | 37 | 283 | 3.0 | 9.0 | 0.00 | 0.00 | 0.00 | 65 | 1007.0 |
| 20260505072029 | 38 | 297 | 2.0 | 10.0 | 0.00 | 0.00 | 0.00 | 65 | 1006.9 |
| 20260505071546 | 38 | 315 | 5.0 | 10.0 | 0.00 | 0.00 | 0.00 | 64 | 1006.8 |
| 20260505071026 | 38 | 312 | 3.0 | 9.0 | 0.00 | 0.00 | 0.00 | 64 | 1006.9 |
| 20260505070529 | 38 | 296 | 2.0 | 8.0 | 0.00 | 0.00 | 0.00 | 64 | 1006.9 |
| 20260505070044 | 38 | 296 | 3.0 | 9.0 | 0.00 | 0.00 | 0.00 | 63 | 1006.8 |
| 20260505065527 | 38 | 274 | 3.0 | 10.0 | 0.00 | 0.00 | 0.00 | 63 | 1006.9 |
| 20260505065026 | 38 | 287 | 3.0 | 10.0 | 0.00 | 0.00 | 0.00 | 63 | 1006.9 |
| 20260505064544 | 38 | 296 | 2.0 | 9.0 | 0.00 | 0.00 | 0.00 | 62 | 1006.9 |
| 20260505064027 | 38 | 281 | 4.0 | 10.0 | 0.00 | 0.00 | 0.00 | 62 | 1006.9 |
| 20260505063527 | 39 | 302 | 4.0 | 10.0 | 0.00 | 0.00 | 0.00 | 61 | 1007.0 |
| 20260505063041 | 39 | 302 | 4.0 | 10.0 | 0.00 | 0.00 | 0.00 | 61 | 1006.8 |
| 20260505062527 | 39 | 346 | 4.0 | 8.0 | 0.00 | 0.00 | 0.00 | 61 | 1006.8 |
| 20260505062029 | 39 | 327 | 2.0 | 8.0 | 0.00 | 0.00 | 0.00 | 61 | 1006.9 |
| 20260505061549 | 39 | 306 | 3.0 | 8.0 | 0.00 | 0.00 | 0.00 | 60 | 1006.8 |
| 20260505061029 | 39 | 284 | 2.0 | 8.0 | 0.00 | 0.00 | 0.00 | 60 | 1006.8 |
| 20260505060526 | 39 | 288 | 2.0 | 9.0 | 0.00 | 0.00 | 0.00 | 59 | 1006.6 |
| 20260505060045 | 39 | 318 | 4.0 | 11.0 | 0.00 | 0.00 | 0.00 | 59 | 1006.6 |
| 20260505055526 | 39 | 292 | 5.0 | 11.0 | 0.00 | 0.00 | 0.00 | 59 | 1006.7 |
| 20260505055026 | 39 | 275 | 3.0 | 10.0 | 0.00 | 0.00 | 0.00 | 59 | 1006.7 |
| 20260505054606 | 40 | 267 | 4.0 | 10.0 | 0.00 | 0.00 | 0.00 | 59 | 1006.7 |
| 20260505054027 | 40 | 304 | 3.0 | 11.0 | 0.00 | 0.00 | 0.00 | 59 | 1006.6 |
| 20260505053526 | 40 | 292 | 6.0 | 11.0 | 0.00 | 0.00 | 0.00 | 58 | 1006.6 |
| 20260505053057 | 40 | 289 | 4.0 | 10.0 | 0.00 | 0.00 | 0.00 | 58 | 1006.6 |
| 20260505052526 | 40 | 300 | 4.0 | 8.0 | 0.00 | 0.00 | 0.00 | 58 | 1006.6 |
| 20260505052030 | 40 | 275 | 2.0 | 7.0 | 0.00 | 0.00 | 0.00 | 57 | 1006.6 |
| 20260505051538 | 40 | 300 | 3.0 | 7.0 | 0.00 | 0.00 | 0.00 | 56 | 1006.4 |